User: anonymous   Login
Location: *
(28.2408°N, 53.4600°E)
Time: 22:34:05
(UTC+00:00)
Language:

Cosmos 2237 Rocket - Orbit

View from above orbital plane
View from above orbital plane
View from above satellite
View from above satellite

Ground track
Ground track

The orbit data is extracted from the following two-line orbital elements,

1 22566U 93016B   19320.19409738  .00000275  00000-0  16651-3 0  9992
2 22566  71.0091  15.5065 0012226 238.1241 121.8693 14.14961712376032
Epoch (UTC): 16 November 2019 04:39:30
Eccentricity: 0.0012226
inclination: 71.0091°
perigee height: 833 km
apogee height: 851 km
right ascension of ascending node: 15.5065°
argument of perigee: 238.1241°
revolutions per day: 14.14961712
mean anomaly at epoch: 121.8693°
orbit number at epoch: 37603

The dashed part of the orbit path shows where the satellite is in the earth's shadow,  

DLR